| time (UTC) | temp F | wind direction | speed knots | gust knots | rain 1hr in | rain 24hr in | rain mn in | humidity % | barometer mb |
| 20260504041821 | 50 | 186 | 0.0 | 1.7 | 0.00 | 0.00 | 0.00 | 82 | 1017.6 |
| 20260504041320 | 50 | 176 | 0.0 | 0.9 | 0.00 | 0.00 | 0.00 | 82 | 1017.8 |
| 20260504040819 | 50 | 176 | 0.0 | 0.9 | 0.00 | 0.00 | 0.00 | 81 | 1017.9 |
| 20260504040317 | 50 | 178 | 0.0 | 0.9 | 0.00 | 0.00 | 0.00 | 80 | 1017.9 |
| 20260504035815 | 51 | 179 | 0.0 | 0.9 | 0.00 | 0.00 | 0.00 | 79 | 1017.9 |
| 20260504035536 | 51 | 176 | 0.0 | 0.9 | 0.00 | 0.00 | 0.00 | 79 | 1017.9 |
| 20260504034815 | 51 | 178 | 0.0 | 0.9 | 0.00 | 0.00 | 0.00 | 78 | 1017.8 |
| 20260504034315 | 51 | 181 | 0.0 | 1.7 | 0.00 | 0.00 | 0.00 | 75 | 1017.9 |
| 20260504033815 | 51 | 186 | 0.0 | 1.7 | 0.00 | 0.00 | 0.00 | 75 | 1017.8 |
| 20260504033313 | 51 | 189 | 0.9 | 1.7 | 0.00 | 0.00 | 0.00 | 76 | 1017.8 |
| 20260504033035 | 51 | 194 | 0.9 | 1.7 | 0.00 | 0.00 | 0.00 | 77 | 1017.8 |
| 20260504032314 | 50 | 198 | 0.9 | 1.7 | 0.00 | 0.00 | 0.00 | 78 | 1017.8 |
| 20260504031813 | 50 | 196 | 0.9 | 1.7 | 0.00 | 0.00 | 0.00 | 79 | 1017.9 |
| 20260504031532 | 50 | 190 | 0.0 | 0.9 | 0.00 | 0.00 | 0.00 | 79 | 1017.9 |
| 20260504030810 | 50 | 184 | 0.0 | 0.9 | 0.00 | 0.00 | 0.00 | 79 | 1017.7 |
| 20260504030310 | 50 | 179 | 0.0 | 0.0 | 0.00 | 0.00 | 0.00 | 80 | 1017.6 |
| 20260504025809 | 50 | 179 | 0.0 | 0.0 | 0.00 | 0.00 | 0.00 | 79 | 1017.8 |
| 20260504025533 | 50 | 179 | 0.0 | 0.0 | 0.00 | 0.00 | 0.00 | 79 | 1017.8 |
| 20260504024808 | 50 | 179 | 0.0 | 0.0 | 0.00 | 0.00 | 0.00 | 78 | 1017.8 |
| 20260504024307 | 50 | 179 | 0.0 | 0.0 | 0.00 | 0.00 | 0.00 | 78 | 1017.7 |
| 20260504023808 | 51 | 179 | 0.0 | 0.0 | 0.00 | 0.00 | 0.00 | 77 | 1017.8 |
| 20260504023522 | 51 | 179 | 0.0 | 0.0 | 0.00 | 0.00 | 0.00 | 77 | 1017.8 |
| 20260504022805 | 51 | 180 | 0.0 | 0.0 | 0.00 | 0.00 | 0.00 | 77 | 1017.6 |
| 20260504022305 | 51 | 180 | 0.0 | 0.0 | 0.00 | 0.00 | 0.00 | 76 | 1017.6 |
| 20260504021806 | 52 | 181 | 0.0 | 0.0 | 0.00 | 0.00 | 0.00 | 76 | 1017.6 |
| 20260504021305 | 52 | 186 | 0.0 | 0.0 | 0.00 | 0.00 | 0.00 | 76 | 1017.5 |
| 20260504020805 | 52 | 190 | 0.0 | 0.0 | 0.00 | 0.00 | 0.00 | 75 | 1017.4 |
| 20260504020305 | 52 | 191 | 0.0 | 0.0 | 0.00 | 0.00 | 0.00 | 74 | 1017.4 |
| 20260504015803 | 53 | 191 | 0.0 | 0.0 | 0.00 | 0.00 | 0.00 | 73 | 1017.4 |
| 20260504015531 | 53 | 191 | 0.0 | 0.0 | 0.00 | 0.00 | 0.00 | 73 | 1017.4 |
| 20260504014801 | 53 | 191 | 0.0 | 0.0 | 0.00 | 0.00 | 0.00 | 72 | 1017.3 |
| 20260504014301 | 53 | 191 | 0.0 | 0.0 | 0.00 | 0.00 | 0.00 | 71 | 1017.2 |
| 20260504013801 | 54 | 191 | 0.0 | 0.0 | 0.00 | 0.00 | 0.00 | 71 | 1017.2 |
| 20260504013301 | 54 | 191 | 0.0 | 0.0 | 0.00 | 0.00 | 0.00 | 71 | 1017.1 |
| 20260504013022 | 54 | 191 | 0.0 | 0.0 | 0.00 | 0.00 | 0.00 | 70 | 1017.2 |
| 20260504012523 | 55 | 191 | 0.0 | 0.0 | 0.00 | 0.00 | 0.00 | 69 | 1017.1 |
| 20260504011801 | 55 | 191 | 0.0 | 0.0 | 0.00 | 0.00 | 0.00 | 69 | 1017.2 |
| 20260504011302 | 56 | 191 | 0.0 | 0.9 | 0.00 | 0.00 | 0.00 | 67 | 1017.1 |
| 20260504010801 | 56 | 191 | 0.0 | 0.9 | 0.00 | 0.00 | 0.00 | 66 | 1017.1 |
| 20260504010258 | 56 | 186 | 0.0 | 0.9 | 0.00 | 0.00 | 0.00 | 66 | 1016.9 |
| 20260504010014 | 57 | 184 | 0.0 | 0.0 | 0.00 | 0.00 | 0.00 | 65 | 1016.9 |
| 20260504005253 | 57 | 184 | 0.0 | 0.0 | 0.00 | 0.00 | 0.00 | 64 | 1016.9 |
| 20260504004753 | 58 | 184 | 0.0 | 0.9 | 0.00 | 0.00 | 0.00 | 62 | 1016.8 |
| 20260504004520 | 59 | 186 | 0.0 | 0.9 | 0.00 | 0.00 | 0.00 | 61 | 1016.8 |
| 20260504003753 | 59 | 184 | 0.0 | 0.9 | 0.00 | 0.00 | 0.00 | 60 | 1016.8 |
| 20260504003253 | 60 | 182 | 0.0 | 0.9 | 0.00 | 0.00 | 0.00 | 58 | 1016.7 |
| 20260504002754 | 61 | 178 | 0.0 | 0.9 | 0.00 | 0.00 | 0.00 | 57 | 1016.6 |
| 20260504002254 | 61 | 184 | 0.0 | 0.9 | 0.00 | 0.00 | 0.00 | 55 | 1016.6 |
| 20260504001753 | 62 | 190 | 0.0 | 2.6 | 0.00 | 0.00 | 0.00 | 53 | 1016.5 |
| 20260504001253 | 62 | 197 | 0.9 | 2.6 | 0.00 | 0.00 | 0.00 | 50 | 1016.4 |
| 20260504000753 | 63 | 208 | 0.9 | 1.7 | 0.00 | 0.00 | 0.00 | 51 | 1016.3 |
| 20260504000253 | 64 | 220 | 0.9 | 1.7 | 0.00 | 0.00 | 0.00 | 49 | 1016.3 |
| 20260503235753 | 64 | 252 | 0.9 | 1.7 | 0.00 | 0.00 | 0.00 | 49 | 1016.3 |
| 20260503235253 | 65 | 266 | 0.9 | 2.6 | 0.00 | 0.00 | 0.00 | 47 | 1016.4 |
| 20260503234753 | 65 | 258 | 0.9 | 2.6 | 0.00 | 0.00 | 0.00 | 45 | 1016.4 |
| 20260503234253 | 66 | 236 | 0.9 | 2.6 | 0.00 | 0.00 | 0.00 | 44 | 1016.5 |
| 20260503234012 | 66 | 209 | 1.7 | 5.2 | 0.00 | 0.00 | 0.00 | 44 | 1016.5 |
| 20260503233253 | 67 | 199 | 1.7 | 5.2 | 0.00 | 0.00 | 0.00 | 43 | 1016.4 |
| 20260503232754 | 67 | 200 | 1.7 | 3.5 | 0.00 | 0.00 | 0.00 | 43 | 1016.4 |
| 20260503232254 | 68 | 215 | 1.7 | 6.1 | 0.00 | 0.00 | 0.00 | 43 | 1016.5 |
| 20260503232018 | 68 | 205 | 2.6 | 6.1 | 0.00 | 0.00 | 0.00 | 41 | 1016.5 |
| 20260503231253 | 69 | 208 | 2.6 | 6.1 | 0.00 | 0.00 | 0.00 | 41 | 1016.3 |
| 20260503230753 | 69 | 269 | 1.7 | 6.1 | 0.00 | 0.00 | 0.00 | 41 | 1016.4 |
| 20260503230254 | 70 | 236 | 0.9 | 4.3 | 0.00 | 0.00 | 0.00 | 42 | 1016.4 |
| 20260503225753 | 70 | 240 | 1.7 | 4.3 | 0.00 | 0.00 | 0.00 | 42 | 1016.4 |
| 20260503225253 | 70 | 245 | 1.7 | 5.2 | 0.00 | 0.00 | 0.00 | 43 | 1016.3 |
| 20260503224752 | 70 | 229 | 1.7 | 5.2 | 0.00 | 0.00 | 0.00 | 42 | 1016.4 |
| 20260503224253 | 69 | 261 | 1.7 | 4.3 | 0.00 | 0.00 | 0.00 | 41 | 1016.4 |
| 20260503223252 | 70 | 199 | 2.6 | 6.1 | 0.00 | 0.00 | 0.00 | 40 | 1016.5 |
| 20260503222753 | 70 | 250 | 2.6 | 6.1 | 0.00 | 0.00 | 0.00 | 41 | 1016.5 |
| 20260503222253 | 70 | 246 | 1.7 | 4.3 | 0.00 | 0.00 | 0.00 | 41 | 1016.5 |
| 20260503221752 | 70 | 204 | 2.6 | 6.1 | 0.00 | 0.00 | 0.00 | 42 | 1016.5 |
| 20260503221253 | 70 | 236 | 3.5 | 10.4 | 0.00 | 0.00 | 0.00 | 40 | 1016.5 |
| 20260503221013 | 70 | 220 | 2.6 | 10.4 | 0.00 | 0.00 | 0.00 | 40 | 1016.6 |
| 20260503220253 | 70 | 225 | 1.7 | 6.1 | 0.00 | 0.00 | 0.00 | 40 | 1016.6 |
| 20260503215753 | 70 | 212 | 1.7 | 6.1 | 0.00 | 0.00 | 0.00 | 39 | 1016.7 |
| 20260503215515 | 70 | 242 | 2.6 | 7.0 | 0.00 | 0.00 | 0.00 | 40 | 1016.7 |
| 20260503214752 | 70 | 223 | 2.6 | 7.0 | 0.00 | 0.00 | 0.00 | 40 | 1016.6 |
| 20260503214253 | 70 | 268 | 2.6 | 7.0 | 0.00 | 0.00 | 0.00 | 39 | 1016.8 |
| 20260503213753 | 70 | 213 | 2.6 | 7.0 | 0.00 | 0.00 | 0.00 | 40 | 1016.7 |
| 20260503213253 | 70 | 236 | 3.5 | 7.0 | 0.00 | 0.00 | 0.00 | 38 | 1016.7 |
| 20260503212753 | 70 | 227 | 3.5 | 7.0 | 0.00 | 0.00 | 0.00 | 39 | 1016.8 |
| 20260503212249 | 70 | 320 | 3.5 | 7.0 | 0.00 | 0.00 | 0.00 | 39 | 1016.9 |
| 20260503211748 | 70 | 269 | 2.6 | 6.1 | 0.00 | 0.00 | 0.00 | 39 | 1016.8 |
| 20260503211248 | 71 | 229 | 2.6 | 6.1 | 0.00 | 0.00 | 0.00 | 39 | 1016.9 |
| 20260503210749 | 70 | 195 | 3.5 | 7.8 | 0.00 | 0.00 | 0.00 | 38 | 1016.9 |
| 20260503210510 | 70 | 324 | 3.5 | 9.6 | 0.00 | 0.00 | 0.00 | 38 | 1017.1 |
| 20260503205748 | 70 | 243 | 3.5 | 9.6 | 0.00 | 0.00 | 0.00 | 37 | 1017.3 |
| 20260503205510 | 70 | 174 | 2.6 | 6.1 | 0.00 | 0.00 | 0.00 | 39 | 1017.2 |
| 20260503205008 | 70 | 275 | 3.5 | 7.0 | 0.00 | 0.00 | 0.00 | 38 | 1017.3 |
| 20260503204247 | 70 | 221 | 2.6 | 7.0 | 0.00 | 0.00 | 0.00 | 41 | 1017.4 |
| 20260503203742 | 69 | 282 | 2.6 | 7.0 | 0.00 | 0.00 | 0.00 | 38 | 1017.4 |
| 20260503203242 | 69 | 93 | 2.6 | 7.8 | 0.00 | 0.00 | 0.00 | 40 | 1017.5 |
| 20260503202742 | 69 | 272 | 3.5 | 7.8 | 0.00 | 0.00 | 0.00 | 39 | 1017.6 |
| 20260503202242 | 69 | 263 | 3.5 | 8.7 | 0.00 | 0.00 | 0.00 | 38 | 1017.6 |
| 20260503201742 | 69 | 95 | 3.5 | 8.7 | 0.00 | 0.00 | 0.00 | 40 | 1017.8 |
| 20260503201242 | 69 | 238 | 2.6 | 8.7 | 0.00 | 0.00 | 0.00 | 37 | 1017.9 |
| 20260503200741 | 70 | 234 | 2.6 | 7.0 | 0.00 | 0.00 | 0.00 | 41 | 1018.1 |
| 20260503200239 | 70 | 221 | 2.6 | 7.0 | 0.00 | 0.00 | 0.00 | 39 | 1018.2 |
| 20260503195957 | 70 | 199 | 2.6 | 5.2 | 0.00 | 0.00 | 0.00 | 38 | 1018.2 |
| 20260503195239 | 69 | 253 | 2.6 | 7.0 | 0.00 | 0.00 | 0.00 | 37 | 1018.3 |
| 20260503194735 | 69 | 255 | 2.6 | 7.0 | 0.00 | 0.00 | 0.00 | 37 | 1018.4 |
| 20260503194234 | 69 | 261 | 2.6 | 7.0 | 0.00 | 0.00 | 0.00 | 39 | 1018.4 |
| 20260503193734 | 69 | 216 | 3.5 | 7.0 | 0.00 | 0.00 | 0.00 | 37 | 1018.4 |
| 20260503193235 | 68 | 246 | 3.5 | 8.7 | 0.00 | 0.00 | 0.00 | 38 | 1018.4 |
| 20260503192734 | 69 | 238 | 4.3 | 8.7 | 0.00 | 0.00 | 0.00 | 36 | 1018.6 |
| 20260503192452 | 69 | 267 | 3.5 | 7.8 | 0.00 | 0.00 | 0.00 | 37 | 1018.6 |
| 20260503191733 | 70 | 62 | 2.6 | 7.0 | 0.00 | 0.00 | 0.00 | 37 | 1018.6 |
| 20260503191723 | 69 | 279 | 1.7 | 5.2 | 0.00 | 0.00 | 0.00 | 38 | 1018.7 |
| 20260503190729 | 69 | 236 | 2.6 | 6.1 | 0.00 | 0.00 | 0.00 | 38 | 1018.8 |
| 20260503190454 | 68 | 275 | 2.6 | 6.1 | 0.00 | 0.00 | 0.00 | 37 | 1018.8 |
| 20260503185728 | 68 | 252 | 2.6 | 8.7 | 0.00 | 0.00 | 0.00 | 39 | 1019.0 |
| 20260503185444 | 68 | 231 | 2.6 | 7.0 | 0.00 | 0.00 | 0.00 | 37 | 1019.1 |
| 20260503185327 | 68 | 180 | 3.5 | 8.7 | 0.00 | 0.00 | 0.00 | 38 | 1019.1 |
| 20260503184228 | 68 | 302 | 2.6 | 7.8 | 0.00 | 0.00 | 0.00 | 38 | 1019.1 |
| 20260503183729 | 69 | 287 | 2.6 | 7.8 | 0.00 | 0.00 | 0.00 | 36 | 1019.3 |
| 20260503183227 | 68 | 257 | 3.5 | 7.8 | 0.00 | 0.00 | 0.00 | 38 | 1019.3 |
| 20260503182727 | 68 | 285 | 3.5 | 7.8 | 0.00 | 0.00 | 0.00 | 37 | 1019.4 |
| 20260503182225 | 68 | 201 | 3.5 | 8.7 | 0.00 | 0.00 | 0.00 | 39 | 1019.3 |
| 20260503181727 | 68 | 234 | 2.6 | 8.7 | 0.00 | 0.00 | 0.00 | 37 | 1019.3 |
| 20260503181226 | 67 | 280 | 2.6 | 7.0 | 0.00 | 0.00 | 0.00 | 41 | 1019.3 |
| 20260503180724 | 67 | 238 | 3.5 | 7.0 | 0.00 | 0.00 | 0.00 | 39 | 1019.4 |
| 20260503180443 | 67 | 184 | 2.6 | 7.0 | 0.00 | 0.00 | 0.00 | 40 | 1019.5 |
| 20260503175721 | 66 | 285 | 3.5 | 7.8 | 0.00 | 0.00 | 0.00 | 43 | 1019.4 |
| 20260503175221 | 66 | 173 | 3.5 | 7.8 | 0.00 | 0.00 | 0.00 | 39 | 1019.5 |
| 20260503174720 | 66 | 269 | 3.5 | 7.8 | 0.00 | 0.00 | 0.00 | 40 | 1019.5 |
| 20260503174219 | 67 | 223 | 2.6 | 7.8 | 0.00 | 0.00 | 0.00 | 43 | 1019.5 |
| 20260503173718 | 66 | 267 | 2.6 | 6.1 | 0.00 | 0.00 | 0.00 | 42 | 1019.5 |
| 20260503173218 | 66 | 190 | 3.5 | 7.8 | 0.00 | 0.00 | 0.00 | 44 | 1019.6 |
| 20260503172718 | 65 | 238 | 3.5 | 7.8 | 0.00 | 0.00 | 0.00 | 43 | 1019.7 |
| 20260503172218 | 65 | 202 | 2.6 | 7.8 | 0.00 | 0.00 | 0.00 | 42 | 1019.9 |
| 20260503171718 | 65 | 126 | 2.6 | 4.3 | 0.00 | 0.00 | 0.00 | 43 | 1020.0 |
| 20260503171437 | 64 | 229 | 3.5 | 9.6 | 0.00 | 0.00 | 0.00 | 43 | 1020.2 |
| 20260503170718 | 64 | 269 | 3.5 | 9.6 | 0.00 | 0.00 | 0.00 | 43 | 1020.3 |
| 20260503170218 | 64 | 242 | 2.6 | 8.7 | 0.00 | 0.00 | 0.00 | 42 | 1020.3 |
| 20260503150745 | 60 | 171 | 1.7 | 5.2 | 0.00 | 0.00 | 0.00 | 52 | 1021.0 |
| 20260503150246 | 60 | 180 | 2.6 | 5.2 | 0.00 | 0.00 | 0.00 | 52 | 1021.1 |
| 20260503140241 | 57 | 87 | 1.7 | 5.2 | 0.00 | 0.00 | 0.00 | 59 | 1021.0 |
| 20260503131234 | 53 | 95 | 0.9 | 1.7 | 0.00 | 0.00 | 0.00 | 66 | 1020.8 |
| 20260503130733 | 53 | 88 | 0.9 | 2.6 | 0.00 | 0.00 | 0.00 | 68 | 1020.9 |
| 20260503130233 | 52 | 74 | 0.9 | 2.6 | 0.00 | 0.00 | 0.00 | 67 | 1020.9 |
| 20260503110712 | 40 | 207 | 0.0 | 0.0 | 0.00 | 0.00 | 0.00 | 89 | 1019.9 |
| 20260503110211 | 40 | 207 | 0.0 | 0.0 | 0.00 | 0.00 | 0.00 | 89 | 1019.8 |
| 20260503100201 | 40 | 190 | 0.0 | 0.0 | 0.00 | 0.00 | 0.00 | 88 | 1019.1 |
| 20260503090409 | 40 | 182 | 0.0 | 0.0 | 0.00 | 0.00 | 0.00 | 88 | 1018.7 |
| 20260503081140 | 41 | 183 | 0.0 | 0.0 | 0.00 | 0.00 | 0.00 | 86 | 1018.1 |
| 20260503080637 | 41 | 183 | 0.0 | 0.0 | 0.00 | 0.00 | 0.00 | 86 | 1018.1 |
| 20260503080354 | 41 | 183 | 0.0 | 0.0 | 0.00 | 0.00 | 0.00 | 86 | 1018.0 |
| 20260503072637 | 42 | 183 | 0.0 | 0.0 | 0.00 | 0.00 | 0.00 | 84 | 1017.9 |
| 20260503072133 | 42 | 183 | 0.0 | 0.0 | 0.00 | 0.00 | 0.00 | 84 | 1017.9 |
| 20260503071632 | 42 | 183 | 0.0 | 0.0 | 0.00 | 0.00 | 0.00 | 84 | 1017.8 |
| 20260503071133 | 42 | 183 | 0.0 | 0.0 | 0.00 | 0.00 | 0.00 | 84 | 1017.8 |
| 20260503070633 | 42 | 183 | 0.0 | 0.0 | 0.00 | 0.00 | 0.00 | 84 | 1017.7 |
| 20260503070133 | 42 | 183 | 0.0 | 0.0 | 0.00 | 0.00 | 0.00 | 83 | 1017.6 |
| 20260503055129 | 43 | 188 | 0.0 | 0.9 | 0.00 | 0.00 | 0.00 | 81 | 1017.4 |
| 20260503054628 | 44 | 191 | 0.0 | 0.9 | 0.00 | 0.00 | 0.00 | 81 | 1017.5 |
| 20260503054128 | 44 | 188 | 0.0 | 0.9 | 0.00 | 0.00 | 0.00 | 81 | 1017.5 |
| 20260503053629 | 44 | 191 | 0.9 | 0.9 | 0.00 | 0.00 | 0.00 | 80 | 1017.5 |
| 20260503053128 | 44 | 192 | 0.9 | 1.7 | 0.00 | 0.00 | 0.00 | 80 | 1017.5 |
| 20260503052629 | 44 | 196 | 0.9 | 1.7 | 0.00 | 0.00 | 0.00 | 80 | 1017.5 |
| 20260503052129 | 44 | 200 | 0.0 | 1.7 | 0.00 | 0.00 | 0.00 | 80 | 1017.4 |
| 20260503051628 | 44 | 215 | 0.0 | 0.9 | 0.00 | 0.00 | 0.00 | 80 | 1017.4 |
| 20260503051129 | 44 | 217 | 0.0 | 0.0 | 0.00 | 0.00 | 0.00 | 80 | 1017.4 |
| 20260503050629 | 44 | 217 | 0.0 | 0.0 | 0.00 | 0.00 | 0.00 | 80 | 1017.3 |
| 20260503050354 | 44 | 216 | 0.0 | 0.0 | 0.00 | 0.00 | 0.00 | 81 | 1017.3 |
| 20260503045629 | 44 | 216 | 0.0 | 0.0 | 0.00 | 0.00 | 0.00 | 81 | 1017.2 |
| 20260503045129 | 44 | 213 | 0.0 | 0.0 | 0.00 | 0.00 | 0.00 | 81 | 1017.2 |
| 20260503044628 | 44 | 213 | 0.0 | 0.0 | 0.00 | 0.00 | 0.00 | 82 | 1017.2 |
| 20260503044129 | 44 | 213 | 0.0 | 0.0 | 0.00 | 0.00 | 0.00 | 82 | 1017.3 |
| 20260503043629 | 43 | 212 | 0.0 | 0.0 | 0.00 | 0.00 | 0.00 | 82 | 1017.3 |
| 20260503043128 | 43 | 211 | 0.0 | 0.0 | 0.00 | 0.00 | 0.00 | 82 | 1017.3 |
| 20260503042629 | 44 | 211 | 0.0 | 0.0 | 0.00 | 0.00 | 0.00 | 81 | 1017.4 |
| 20260503042129 | 44 | 211 | 0.0 | 0.0 | 0.00 | 0.00 | 0.00 | 81 | 1017.3 |